Flag for Austria Weather past 2 weeks in Hollabrunn, Lower Austria, Austria

Now
52 °F

Cool.


Feels Like: 48 °F
Forecast: 36 / 54 °F
Wind: 12 mph from West

Location: Retz

Current Time: Mar 30, 2015 at 4:32:16 PM

Latest Report: Mar 30, 2015 at 3:00 PM


Visibility: N/A

Pressure: 29.47 "Hg

Humidity: 50%

Dew point: 34 °F

Location of HollabrunnLocation

Historic Weather in Hollabrunn — Graph

°F

Hollabrunn temperature yesterday

Maximum temperature yesterday: 57 °F (at 3:00 PM)
Minimum temperature yesterday: 36 °F (at 5:00 AM)
Average temperature yesterday: 46 °F

Past Weeks' High & Low Weather Summary

 TemperatureHumidityPressure
High60 °F (Mar 26, 3:00 PM)96% (Mar 26, 5:00 AM)30.53 "Hg (Mar 26, 5:00 AM)
Low30 °F (Mar 23, 6:00 AM)37% (Mar 21, 4:00 PM)29.38 "Hg (Mar 30, 4:00 AM)
Average46 °F67%30.06 "Hg
* Reported Mar 15 2:00 PM — Mar 30 3:00 PM, Hollabrunn, Weather by CustomWeather, © 2015

Note: Actual official high and low records may vary slightly from our data, if they occured in-between our weather recording intervals... More about our weather records

Advertising

Hollabrunn weather history for previous 24 hours

 ConditionsComfort  
Time TempWeatherWind HumidityBarometerVisibility
3:00 PM
Mon, Mar 30
52 °FCool.12 mph50%29.47 "HgN/A
2:00 PM49 °FOvercast.14 mph53%29.50 "Hg22 mi
1:00 PM49 °FCool.13 mph59%29.47 "HgN/A
12:00 PM46 °FCool.10 mph81%29.47 "HgN/A
11:00 AM46 °FCool.10 mph78%29.47 "HgN/A
10:00 AM47 °FCool.7 mph79%29.44 "HgN/A
9:00 AM45 °FCool.8 mph74%29.47 "HgN/A
8:00 AM43 °FLight rain. Overcast.8 mph79%29.47 "Hg8 mi
7:00 AM44 °FLight rain. Overcast.12 mph80%29.47 "Hg5 mi
6:00 AM47 °FFog.8 mph82%29.44 "HgN/A
5:00 AM52 °FCool.12 mph66%29.38 "HgN/A
4:00 AM52 °FCool.12 mph67%29.38 "HgN/A
3:00 AM53 °FCool.8 mph68%29.41 "HgN/A
2:00 AM52 °FCool.8 mph73%29.44 "HgN/A
1:00 AM51 °FCool.7 mph76%29.47 "HgN/A
12:00 AM49 °FCool.5 mph81%29.53 "HgN/A
11:00 PM
Sun, Mar 29
49 °FCool.6 mph80%29.56 "HgN/A
10:00 PM49 °FCool.6 mph78%29.60 "HgN/A
9:00 PM51 °FCool.7 mph74%29.63 "HgN/A
8:00 PM51 °FLight rain. Overcast.7 mph77%29.64 "Hg11 mi
7:00 PM51 °FFog.5 mph82%29.65 "HgN/A
6:00 PM53 °FCool.6 mph77%29.66 "HgN/A
5:00 PM54 °FCool.7 mph71%29.67 "HgN/A
4:00 PM56 °FCool.8 mph62%29.69 "HgN/A
Weather by CustomWeather, © 2015

See weather overviewHow to use our weather pages